Location: Mexico
(19.4000°N, 99.1500°W)
Time: 17:30:27
(UTC-06:00)

ISS - Pass Details

Date: 17 February 2020
Orbit: 415 x 422 km, 51.6° (Epoch: 27 February)

Event Time Altitude Azimuth Distance (km) Brightness Sun altitude
Rises 06:29:03 0° 206° (SSW) 2,344 -0.1 -9.0°
Reaches altitude 10° 06:31:12 10° 199° (SSW) 1,485 -1.1 -8.5°
Maximum altitude 06:34:22 42° 127° (SE) 601 -2.4 -7.7°
Drops below altitude 10° 06:37:35 10° 54° (NE) 1,493 -0.3 -7.0°
Sets 06:39:44 0° 47° (NE) 2,360 0.6 -6.5°
